STARLINK-5564 (56134 NORAD) Tracking and Keplerian Element Data

This shows tracking and keplerian element data for the satellite.

Feedback or suggestion? Click here.




ElementValue
Catalog56134
NameSTARLINK-5564
Epoch Orbit656
Epoch Day127.25001157
Epoch Year2023
RAAN33.6902
Inclination43.0012
Eccentricity0.0001612
Argument of Perigee281.481
Mean Anonmoly337.8759
Mean Motion15.48886455
Decay Rate0.00064386
L11 56134U 23046AU 23127.25001157 .00064386 00000+0 11617-2 0 9994
L22 56134 43.0012 33.6902 0001612 281.4810 337.8759 15.48886455 6561



Live tracking and technical data element details for STARLINK-5564 (NORAD 56134). STARLINK-5564 can be tracked NOW for your location showing map with azimuth and elevation plus other details from your city location.







IsCatalogInMostPopularTable: catalog: 56134, numindb: 4
Update: records affected: 1



GetName: 56134 STARLINK-5564

Hit Count: updated at: Sat, 03 Jun 2023 18:55:27 GMT